| time (UTC) | temp F | wind direction | speed knots | gust knots | rain 1hr in | rain 24hr in | rain mn in | humidity % | barometer mb |
| 20260504034103 | 61 | 210 | 0.0 | 0.0 | 0.00 | 0.00 | 0.00 | 76 | 1019.5 |
| 20260504033601 | 61 | 194 | 0.0 | 0.0 | 0.00 | 0.00 | 0.00 | 76 | 1019.3 |
| 20260504033057 | 62 | 194 | 0.0 | 0.0 | 0.00 | 0.00 | 0.00 | 76 | 1019.3 |
| 20260504032554 | 62 | 194 | 0.0 | 0.0 | 0.00 | 0.00 | 0.00 | 75 | 1019.4 |
| 20260504032051 | 62 | 194 | 0.0 | 0.0 | 0.00 | 0.00 | 0.00 | 74 | 1019.2 |
| 20260504031548 | 62 | 210 | 0.0 | 0.0 | 0.00 | 0.00 | 0.00 | 74 | 1019.6 |
| 20260504031044 | 62 | 195 | 0.0 | 0.0 | 0.00 | 0.00 | 0.00 | 73 | 1019.4 |
| 20260504030542 | 63 | 195 | 0.0 | 0.0 | 0.00 | 0.00 | 0.00 | 73 | 1019.2 |
| 20260504030038 | 63 | 195 | 0.0 | 0.0 | 0.00 | 0.00 | 0.00 | 72 | 1019.4 |
| 20260504025535 | 64 | 195 | 0.0 | 0.0 | 0.00 | 0.00 | 0.00 | 72 | 1019.4 |
| 20260504025032 | 64 | 195 | 0.0 | 0.0 | 0.00 | 0.00 | 0.00 | 71 | 1019.3 |
| 20260504024529 | 64 | 195 | 0.0 | 0.0 | 0.00 | 0.00 | 0.00 | 71 | 1019.4 |
| 20260504024026 | 65 | 195 | 0.0 | 0.0 | 0.00 | 0.00 | 0.00 | 69 | 1019.4 |
| 20260504023522 | 65 | 195 | 0.0 | 0.0 | 0.00 | 0.00 | 0.00 | 69 | 1019.4 |
| 20260504023018 | 65 | 210 | 0.0 | 0.0 | 0.00 | 0.00 | 0.00 | 69 | 1019.2 |
| 20260504022514 | 65 | 199 | 0.0 | 0.0 | 0.00 | 0.00 | 0.00 | 69 | 1019.3 |
| 20260504022011 | 65 | 191 | 0.0 | 0.0 | 0.00 | 0.00 | 0.00 | 69 | 1019.4 |
| 20260504021509 | 65 | 191 | 0.0 | 0.0 | 0.00 | 0.00 | 0.00 | 68 | 1019.2 |
| 20260504021005 | 66 | 176 | 0.0 | 0.0 | 0.00 | 0.00 | 0.00 | 68 | 1019.2 |
| 20260504020502 | 66 | 193 | 0.0 | 0.0 | 0.00 | 0.00 | 0.00 | 67 | 1019.1 |
| 20260504015959 | 66 | 193 | 0.0 | 0.0 | 0.00 | 0.00 | 0.00 | 67 | 1018.9 |
| 20260504015455 | 66 | 193 | 0.0 | 0.0 | 0.00 | 0.00 | 0.00 | 66 | 1019.3 |
| 20260504014951 | 66 | 193 | 0.0 | 0.0 | 0.00 | 0.00 | 0.00 | 66 | 1019.1 |
| 20260504014447 | 67 | 193 | 0.0 | 0.0 | 0.00 | 0.00 | 0.00 | 65 | 1018.7 |
| 20260504013944 | 67 | 193 | 0.0 | 0.0 | 0.00 | 0.00 | 0.00 | 64 | 1018.7 |
| 20260504013443 | 68 | 193 | 0.0 | 0.0 | 0.00 | 0.00 | 0.00 | 63 | 1018.8 |
| 20260504012938 | 68 | 191 | 0.0 | 0.0 | 0.00 | 0.00 | 0.00 | 63 | 1018.6 |
| 20260504012436 | 68 | 186 | 0.0 | 0.0 | 0.00 | 0.00 | 0.00 | 62 | 1018.7 |
| 20260504011934 | 68 | 195 | 0.0 | 0.0 | 0.00 | 0.00 | 0.00 | 61 | 1018.5 |
| 20260504011430 | 68 | 195 | 0.0 | 0.0 | 0.00 | 0.00 | 0.00 | 61 | 1018.4 |
| 20260504010926 | 68 | 188 | 0.0 | 0.0 | 0.00 | 0.00 | 0.00 | 60 | 1018.4 |
| 20260504010422 | 68 | 188 | 0.0 | 0.0 | 0.00 | 0.00 | 0.00 | 59 | 1018.5 |
| 20260504005919 | 69 | 189 | 0.0 | 0.0 | 0.00 | 0.00 | 0.00 | 58 | 1018.2 |
| 20260504005415 | 69 | 191 | 0.0 | 0.0 | 0.00 | 0.00 | 0.00 | 58 | 1018.3 |
| 20260504004913 | 69 | 189 | 0.0 | 0.9 | 0.00 | 0.00 | 0.00 | 57 | 1018.4 |
| 20260504004411 | 69 | 191 | 0.9 | 0.9 | 0.00 | 0.00 | 0.00 | 56 | 1018.4 |
| 20260504003907 | 69 | 188 | 0.0 | 0.0 | 0.00 | 0.00 | 0.00 | 56 | 1018.2 |
| 20260504003404 | 69 | 187 | 0.9 | 0.9 | 0.00 | 0.00 | 0.00 | 55 | 1018.3 |
| 20260504002900 | 70 | 176 | 0.0 | 0.0 | 0.00 | 0.00 | 0.00 | 54 | 1018.3 |
| 20260504002357 | 70 | 188 | 0.9 | 0.9 | 0.00 | 0.00 | 0.00 | 54 | 1018.1 |
| 20260504001855 | 70 | 211 | 0.0 | 0.9 | 0.00 | 0.00 | 0.00 | 54 | 1018.1 |
| 20260504001352 | 70 | 182 | 0.0 | 0.0 | 0.00 | 0.00 | 0.00 | 52 | 1018.1 |
| 20260504000849 | 70 | 185 | 0.0 | 0.9 | 0.00 | 0.00 | 0.00 | 51 | 1018.2 |
| 20260504000346 | 70 | 182 | 1.7 | 1.7 | 0.00 | 0.00 | 0.00 | 51 | 1018.2 |
| 20260503235843 | 71 | 185 | 1.7 | 1.7 | 0.00 | 0.00 | 0.00 | 52 | 1018.2 |
| 20260503235341 | 71 | 206 | 1.7 | 2.6 | 0.00 | 0.00 | 0.00 | 51 | 1018.1 |
| 20260503234838 | 71 | 200 | 2.6 | 2.6 | 0.00 | 0.00 | 0.00 | 50 | 1018.0 |
| 20260503234336 | 71 | 188 | 0.0 | 0.0 | 0.00 | 0.00 | 0.00 | 49 | 1018.3 |
| 20260503233833 | 71 | 225 | 3.5 | 3.5 | 0.00 | 0.00 | 0.00 | 49 | 1018.3 |
| 20260503233329 | 72 | 212 | 0.9 | 0.9 | 0.00 | 0.00 | 0.00 | 46 | 1018.1 |
| 20260503232826 | 72 | 215 | 3.5 | 3.5 | 0.00 | 0.00 | 0.00 | 46 | 1018.1 |
| 20260503232323 | 72 | 191 | 0.0 | 0.9 | 0.00 | 0.00 | 0.00 | 46 | 1018.2 |
| 20260503231821 | 72 | 193 | 0.9 | 0.9 | 0.00 | 0.00 | 0.00 | 47 | 1018.2 |
| 20260503231318 | 73 | 215 | 3.5 | 3.5 | 0.00 | 0.00 | 0.00 | 47 | 1018.2 |
| 20260503230814 | 73 | 179 | 0.0 | 0.9 | 0.00 | 0.00 | 0.00 | 44 | 1018.2 |
| 20260503230311 | 74 | 195 | 1.7 | 1.7 | 0.00 | 0.00 | 0.00 | 44 | 1018.2 |
| 20260503225809 | 74 | 176 | 0.9 | 0.9 | 0.00 | 0.00 | 0.00 | 43 | 1018.2 |
| 20260503225304 | 74 | 188 | 1.7 | 1.7 | 0.00 | 0.00 | 0.00 | 42 | 1018.2 |
| 20260503224801 | 74 | 187 | 0.9 | 1.7 | 0.00 | 0.00 | 0.00 | 43 | 1018.1 |
| 20260503224258 | 74 | 138 | 1.7 | 1.7 | 0.00 | 0.00 | 0.00 | 43 | 1018.1 |
| 20260503223756 | 74 | 214 | 3.5 | 5.2 | 0.00 | 0.00 | 0.00 | 40 | 1018.0 |
| 20260503223253 | 74 | 201 | 2.6 | 2.6 | 0.00 | 0.00 | 0.00 | 41 | 1018.1 |
| 20260503222749 | 74 | 206 | 0.9 | 1.7 | 0.00 | 0.00 | 0.00 | 41 | 1018.0 |
| 20260503222247 | 75 | 214 | 1.7 | 2.6 | 0.00 | 0.00 | 0.00 | 41 | 1017.8 |
| 20260503221745 | 76 | 216 | 1.7 | 1.7 | 0.00 | 0.00 | 0.00 | 38 | 1018.0 |
| 20260503221243 | 75 | 184 | 0.0 | 0.0 | 0.00 | 0.00 | 0.00 | 40 | 1017.9 |
| 20260503220739 | 76 | 226 | 1.7 | 2.6 | 0.00 | 0.00 | 0.00 | 38 | 1018.0 |
| 20260503220236 | 76 | 195 | 0.0 | 0.9 | 0.00 | 0.00 | 0.00 | 39 | 1018.0 |
| 20260503215733 | 76 | 209 | 0.9 | 1.7 | 0.00 | 0.00 | 0.00 | 38 | 1018.1 |
| 20260503215230 | 77 | 214 | 2.6 | 2.6 | 0.00 | 0.00 | 0.00 | 37 | 1018.1 |
| 20260503214728 | 80 | 214 | 3.5 | 3.5 | 0.00 | 0.00 | 0.00 | 28 | 1018.3 |
| 20260503214225 | 79 | 161 | 0.0 | 0.0 | 0.00 | 0.00 | 0.00 | 30 | 1018.3 |
| 20260503213723 | 81 | 222 | 0.9 | 1.7 | 0.00 | 0.00 | 0.00 | 27 | 1018.2 |
| 20260503213220 | 80 | 168 | 0.0 | 0.0 | 0.00 | 0.00 | 0.00 | 29 | 1018.2 |
| 20260503212716 | 80 | 174 | 0.0 | 0.0 | 0.00 | 0.00 | 0.00 | 29 | 1018.2 |
| 20260503212214 | 80 | 133 | 0.0 | 0.9 | 0.00 | 0.00 | 0.00 | 29 | 1018.5 |
| 20260503211712 | 80 | 3 | 0.0 | 0.9 | 0.00 | 0.00 | 0.00 | 27 | 1018.7 |
| 20260503211208 | 81 | 168 | 0.0 | 0.0 | 0.00 | 0.00 | 0.00 | 31 | 1018.6 |
| 20260503210703 | 80 | 189 | 0.0 | 0.9 | 0.00 | 0.00 | 0.00 | 28 | 1018.4 |
| 20260503210201 | 80 | 182 | 0.0 | 0.9 | 0.00 | 0.00 | 0.00 | 30 | 1018.5 |
| 20260503205655 | 79 | 180 | 0.9 | 1.7 | 0.00 | 0.00 | 0.00 | 32 | 1018.4 |
| 20260503205152 | 80 | 65 | 0.9 | 1.7 | 0.00 | 0.00 | 0.00 | 28 | 1018.5 |
| 20260503204649 | 81 | 123 | 0.9 | 1.7 | 0.00 | 0.00 | 0.00 | 27 | 1018.9 |
| 20260503204147 | 81 | 163 | 0.9 | 0.9 | 0.00 | 0.00 | 0.00 | 27 | 1018.7 |
| 20260503203643 | 81 | 167 | 0.0 | 0.9 | 0.00 | 0.00 | 0.00 | 27 | 1018.7 |
| 20260503203141 | 81 | 47 | 0.9 | 0.9 | 0.00 | 0.00 | 0.00 | 28 | 1018.7 |
| 20260503202638 | 80 | 126 | 0.9 | 0.9 | 0.00 | 0.00 | 0.00 | 30 | 1018.9 |
| 20260503202136 | 80 | 152 | 0.0 | 0.9 | 0.00 | 0.00 | 0.00 | 28 | 1018.9 |
| 20260503201634 | 80 | 77 | 0.9 | 0.9 | 0.00 | 0.00 | 0.00 | 31 | 1019.0 |
| 20260503201131 | 80 | 199 | 1.7 | 1.7 | 0.00 | 0.00 | 0.00 | 28 | 1019.1 |
| 20260503200627 | 80 | 179 | 0.9 | 0.9 | 0.00 | 0.00 | 0.00 | 30 | 1019.1 |
| 20260503200124 | 81 | 148 | 0.0 | 0.9 | 0.00 | 0.00 | 0.00 | 28 | 1019.1 |
| 20260503195621 | 80 | 191 | 0.9 | 1.7 | 0.00 | 0.00 | 0.00 | 28 | 1019.4 |
| 20260503195118 | 82 | 131 | 0.9 | 1.7 | 0.00 | 0.00 | 0.00 | 26 | 1019.7 |
| 20260503194615 | 81 | 0 | 0.9 | 0.9 | 0.00 | 0.00 | 0.00 | 28 | 1019.7 |
| 20260503194110 | 81 | 17 | 0.9 | 1.7 | 0.00 | 0.00 | 0.00 | 27 | 1019.7 |
| 20260503193607 | 81 | 181 | 0.0 | 0.9 | 0.00 | 0.00 | 0.00 | 30 | 1019.7 |
| 20260503193102 | 80 | 193 | 0.0 | 0.9 | 0.00 | 0.00 | 0.00 | 30 | 1020.0 |
| 20260503192558 | 80 | 182 | 0.0 | 0.0 | 0.00 | 0.00 | 0.00 | 29 | 1019.8 |
| 20260503192054 | 80 | 220 | 0.9 | 1.7 | 0.00 | 0.00 | 0.00 | 28 | 1019.7 |
| 20260503191551 | 79 | 216 | 1.7 | 1.7 | 0.00 | 0.00 | 0.00 | 29 | 1020.1 |
| 20260503191048 | 79 | 61 | 2.6 | 3.5 | 0.00 | 0.00 | 0.00 | 27 | 1020.3 |
| 20260503190545 | 80 | 55 | 0.9 | 1.7 | 0.00 | 0.00 | 0.00 | 28 | 1020.3 |
| 20260503190042 | 78 | 180 | 0.9 | 1.7 | 0.00 | 0.00 | 0.00 | 30 | 1020.2 |
| 20260503185539 | 79 | 10 | 1.7 | 1.7 | 0.00 | 0.00 | 0.00 | 28 | 1020.5 |
| 20260503185038 | 79 | 91 | 0.9 | 0.9 | 0.00 | 0.00 | 0.00 | 29 | 1020.4 |
| 20260503184534 | 79 | 52 | 1.7 | 1.7 | 0.00 | 0.00 | 0.00 | 29 | 1020.6 |
| 20260503184031 | 79 | 173 | 0.9 | 0.9 | 0.00 | 0.00 | 0.00 | 29 | 1020.7 |
| 20260503183528 | 78 | 195 | 0.9 | 1.7 | 0.00 | 0.00 | 0.00 | 28 | 1020.6 |
| 20260503183025 | 79 | 90 | 1.7 | 1.7 | 0.00 | 0.00 | 0.00 | 27 | 1020.9 |
| 20260503182523 | 79 | 20 | 2.6 | 3.5 | 0.00 | 0.00 | 0.00 | 28 | 1020.9 |
| 20260503182021 | 79 | 21 | 0.9 | 1.7 | 0.00 | 0.00 | 0.00 | 27 | 1021.1 |
| 20260503181518 | 78 | 84 | 1.7 | 1.7 | 0.00 | 0.00 | 0.00 | 26 | 1021.2 |
| 20260503181014 | 78 | 86 | 0.9 | 0.9 | 0.00 | 0.00 | 0.00 | 29 | 1021.0 |
| 20260503180512 | 78 | 99 | 1.7 | 1.7 | 0.00 | 0.00 | 0.00 | 27 | 1021.1 |
| 20260503180009 | 77 | 121 | 1.7 | 1.7 | 0.00 | 0.00 | 0.00 | 27 | 1021.1 |
| 20260503175506 | 77 | 130 | 0.9 | 0.9 | 0.00 | 0.00 | 0.00 | 29 | 1021.1 |
| 20260503175003 | 77 | 100 | 1.7 | 1.7 | 0.00 | 0.00 | 0.00 | 28 | 1021.3 |
| 20260503174501 | 77 | 339 | 1.7 | 2.6 | 0.00 | 0.00 | 0.00 | 30 | 1021.2 |
| 20260503173956 | 77 | 104 | 0.9 | 0.9 | 0.00 | 0.00 | 0.00 | 29 | 1021.1 |
| 20260503173451 | 76 | 89 | 0.9 | 0.9 | 0.00 | 0.00 | 0.00 | 29 | 1021.2 |
| 20260503172948 | 77 | 209 | 1.7 | 1.7 | 0.00 | 0.00 | 0.00 | 28 | 1021.2 |
| 20260503172446 | 76 | 128 | 0.9 | 0.9 | 0.00 | 0.00 | 0.00 | 30 | 1021.3 |
| 20260503171942 | 75 | 177 | 1.7 | 1.7 | 0.00 | 0.00 | 0.00 | 31 | 1021.3 |
| 20260503171439 | 76 | 120 | 0.9 | 0.9 | 0.00 | 0.00 | 0.00 | 29 | 1021.4 |
| 20260503170937 | 77 | 49 | 2.6 | 3.5 | 0.00 | 0.00 | 0.00 | 28 | 1021.5 |
| 20260503170432 | 76 | 346 | 2.6 | 5.2 | 0.00 | 0.00 | 0.00 | 28 | 1021.6 |
| 20260503150825 | 74 | 157 | 0.0 | 0.9 | 0.00 | 0.00 | 0.00 | 37 | 1022.5 |
| 20260503150321 | 74 | 101 | 1.7 | 1.7 | 0.00 | 0.00 | 0.00 | 36 | 1022.5 |
| 20260503140245 | 72 | 151 | 0.0 | 0.9 | 0.00 | 0.00 | 0.00 | 43 | 1022.1 |
| 20260503131215 | 66 | 166 | 0.0 | 0.9 | 0.00 | 0.00 | 0.00 | 51 | 1021.7 |
| 20260503130713 | 65 | 150 | 0.0 | 0.0 | 0.00 | 0.00 | 0.00 | 52 | 1021.6 |
| 20260503130210 | 65 | 160 | 0.0 | 0.0 | 0.00 | 0.00 | 0.00 | 54 | 1021.5 |
| 20260503120135 | 54 | 159 | 0.0 | 0.0 | 0.00 | 0.00 | 0.00 | 80 | 1021.2 |
| 20260503110603 | 50 | 160 | 0.0 | 0.0 | 0.00 | 0.00 | 0.00 | 85 | 1020.5 |
| 20260503090450 | 51 | 160 | 0.0 | 0.0 | 0.00 | 0.00 | 0.00 | 78 | 1020.1 |
| 20260503081416 | 52 | 160 | 0.0 | 0.0 | 0.00 | 0.00 | 0.00 | 76 | 1019.8 |
| 20260503080913 | 53 | 160 | 0.0 | 0.0 | 0.00 | 0.00 | 0.00 | 75 | 1019.7 |
| 20260503080410 | 53 | 160 | 0.0 | 0.0 | 0.00 | 0.00 | 0.00 | 74 | 1019.8 |
| 20260503072846 | 55 | 160 | 0.0 | 0.0 | 0.00 | 0.00 | 0.00 | 72 | 1019.3 |
| 20260503072343 | 55 | 160 | 0.0 | 0.0 | 0.00 | 0.00 | 0.00 | 72 | 1019.6 |
| 20260503071840 | 55 | 160 | 0.0 | 0.0 | 0.00 | 0.00 | 0.00 | 72 | 1019.5 |
| 20260503071337 | 55 | 160 | 0.0 | 0.0 | 0.00 | 0.00 | 0.00 | 72 | 1019.5 |
| 20260503070833 | 55 | 159 | 0.0 | 0.0 | 0.00 | 0.00 | 0.00 | 72 | 1019.7 |
| 20260503070331 | 55 | 160 | 0.0 | 0.0 | 0.00 | 0.00 | 0.00 | 72 | 1019.4 |
| 20260503060302 | 56 | 160 | 0.0 | 0.0 | 0.00 | 0.00 | 0.00 | 69 | 1019.2 |
| 20260503054749 | 57 | 160 | 0.0 | 0.0 | 0.00 | 0.00 | 0.00 | 67 | 1019.2 |
| 20260503054246 | 57 | 160 | 0.0 | 0.0 | 0.00 | 0.00 | 0.00 | 66 | 1019.3 |
| 20260503053744 | 57 | 160 | 0.0 | 0.0 | 0.00 | 0.00 | 0.00 | 66 | 1019.1 |
| 20260503053243 | 57 | 160 | 0.0 | 0.0 | 0.00 | 0.00 | 0.00 | 66 | 1019.1 |
| 20260503052738 | 57 | 160 | 0.0 | 0.0 | 0.00 | 0.00 | 0.00 | 66 | 1019.2 |
| 20260503052235 | 57 | 160 | 0.0 | 0.0 | 0.00 | 0.00 | 0.00 | 67 | 1019.1 |
| 20260503051730 | 57 | 160 | 0.0 | 0.0 | 0.00 | 0.00 | 0.00 | 66 | 1019.2 |
| 20260503051228 | 57 | 160 | 0.0 | 0.0 | 0.00 | 0.00 | 0.00 | 66 | 1019.0 |
| 20260503050724 | 57 | 160 | 0.0 | 0.0 | 0.00 | 0.00 | 0.00 | 65 | 1019.2 |
| 20260503050221 | 57 | 160 | 0.0 | 0.0 | 0.00 | 0.00 | 0.00 | 66 | 1019.0 |
| 20260503045718 | 57 | 160 | 0.0 | 0.0 | 0.00 | 1.26 | 1.26 | 65 | 1018.9 |
| 20260503045216 | 57 | 160 | 0.0 | 0.0 | 0.00 | 1.26 | 1.26 | 65 | 1019.1 |
| 20260503044712 | 57 | 160 | 0.0 | 0.0 | 0.00 | 1.26 | 1.26 | 65 | 1019.0 |
| 20260503044210 | 58 | 160 | 0.0 | 0.0 | 0.00 | 1.26 | 1.26 | 64 | 1019.0 |
| 20260503043706 | 58 | 160 | 0.0 | 0.0 | 0.00 | 1.26 | 1.26 | 64 | 1018.7 |
| 20260503043204 | 58 | 160 | 0.0 | 0.0 | 0.00 | 1.26 | 1.26 | 63 | 1018.7 |
| 20260503042659 | 58 | 160 | 0.0 | 0.0 | 0.00 | 1.26 | 1.26 | 62 | 1018.8 |
| 20260503042156 | 58 | 160 | 0.0 | 0.0 | 0.00 | 1.26 | 1.26 | 62 | 1018.5 |
| 20260503041652 | 59 | 160 | 0.0 | 0.0 | 0.00 | 1.26 | 1.26 | 62 | 1018.7 |
| 20260503041150 | 59 | 160 | 0.0 | 0.0 | 0.00 | 1.26 | 1.26 | 61 | 1018.5 |
| 20260503040648 | 59 | 160 | 0.0 | 0.0 | 0.00 | 1.26 | 1.26 | 61 | 1018.5 |
| 20260503040145 | 59 | 160 | 0.0 | 0.0 | 0.00 | 1.26 | 1.26 | 61 | 1018.6 |
| 20260503035641 | 59 | 160 | 0.0 | 0.0 | 0.00 | 1.26 | 1.26 | 61 | 1018.6 |
| 20260503035139 | 59 | 160 | 0.0 | 0.0 | 0.00 | 1.26 | 1.26 | 60 | 1018.4 |
| 20260503034636 | 59 | 160 | 0.0 | 0.0 | 0.00 | 1.26 | 1.26 | 60 | 1018.5 |